Weather History for West Plains, MO

Change the Weather History Date:

Friday, November 2, 2012

  Actual Average Record
Temperature  
Mean Temperature 56 °F 52 °F  
Max Temperature 69 °F 63 °F 81 °F (1987)
Min Temperature 43 °F 41 °F 16 °F (1951)
Degree Days  
Heating Degree Days 9 13  
Month to date heating degree days 23 26  
Since 1 July heating degree days 391 329  
Cooling Degree Days 0 0  
Month to date cooling degree days 0 0  
Year to date cooling degree days 1739 1352  
Growing Degree Days 6 (Base 50)    
Moisture  
Dew Point 39 °F    
Average Humidity 55    
Maximum Humidity 82    
Minimum Humidity 38    
Precipitation  
Precipitation 0.00 in 0.13 in 1.68 in (1961)
Month to date precipitation 0.00 0.25  
Year to date precipitation 28.26 38.25  
Sea Level Pressure  
Sea Level Pressure 29.97 in    
Wind  
Wind Speed 6 mph (East)    
Max Wind Speed 10 mph    
Max Gust Speed 17 mph    
Visibility 10 miles    
Events      
T = Trace of Precipitation, MM = Missing Value Source: NWS Daily Summary

Daily Weather History Graph

Daily Weather History Graph

Search for Another Location

Airport:

Trip Planner

Search our weather history database for the weather conditions in past years. The results will help you decide how hot, cold, wet, or windy it might be!

Date:

Astronomy

Nov. 02, 2012 Rise Set
Actual Time 7:33 AM CDT 6:08 PM CDT
Civil Twilight 7:06 AM CDT 6:35 PM CDT
Nautical Twilight 6:35 AM CDT 7:06 PM CDT
Astronomical Twilight 6:05 AM CDT 7:36 PM CDT
Moon 8:59 PM CDT (11/2) 10:50 AM CDT (11/2)
Length of Visible Light 11h 29m
Length of Day
10h 35m
Waning Gibbous, 87% of the Moon is Illuminated
Nov 2
Waning Gibbous
Nov 6
Last Quarter
Nov 13
New
Nov 20
First Quarter
Nov 28
Full

Hourly Weather History & Observations

Time (CDT) Temp. Windchill Dew Point Humidity Pressure Visibility Wind Dir Wind Speed Gust Speed Precip Events Conditions
12:53 AM 52.0 °F - 39.0 °F 61% 29.93 in 10.0 mi WSW 6.9 mph - N/A   Clear
1:53 AM 50.0 °F - 39.9 °F 68% 29.94 in 10.0 mi West 5.8 mph - N/A   Clear
2:53 AM 48.0 °F - 39.0 °F 71% 29.94 in 10.0 mi West 4.6 mph - N/A   Clear
3:53 AM 53.1 °F - 39.9 °F 61% 29.93 in 10.0 mi NNW 6.9 mph - N/A   Clear
4:53 AM 51.1 °F - 39.9 °F 66% 29.93 in 10.0 mi North 5.8 mph - N/A   Clear
5:53 AM 50.0 °F - 39.0 °F 66% 29.95 in 10.0 mi North 3.5 mph - N/A   Clear
6:53 AM 46.0 °F 44.8 °F 39.0 °F 76% 29.98 in 10.0 mi North 3.5 mph - N/A   Clear
7:53 AM 43.0 °F 39.5 °F 37.9 °F 82% 30.01 in 10.0 mi NNE 5.8 mph - N/A   Clear
8:53 AM 50.0 °F - 39.0 °F 66% 30.03 in 10.0 mi NE 6.9 mph - N/A   Clear
9:53 AM 53.1 °F - 39.0 °F 59% 30.03 in 10.0 mi ENE 6.9 mph - N/A   Clear
10:53 AM 57.9 °F - 41.0 °F 53% 30.02 in 10.0 mi ENE 6.9 mph - N/A   Clear
11:53 AM 61.0 °F - 41.0 °F 48% 30.02 in 10.0 mi East 6.9 mph - N/A   Clear
12:53 PM 64.0 °F - 41.0 °F 43% 30.00 in 10.0 mi ESE 6.9 mph - N/A   Clear
1:53 PM 66.9 °F - 42.1 °F 40% 29.97 in 10.0 mi East 5.8 mph - N/A   Clear
2:53 PM 66.9 °F - 42.1 °F 40% 29.96 in 10.0 mi SSE 8.1 mph - N/A   Clear
3:53 PM 69.1 °F - 42.1 °F 38% 29.95 in 10.0 mi SSE 9.2 mph - N/A   Clear
4:53 PM 68.0 °F - 43.0 °F 40% 29.94 in 10.0 mi SE 5.8 mph - N/A   Clear
5:53 PM 64.9 °F - 43.0 °F 45% 29.95 in 10.0 mi ESE 5.8 mph - N/A   Clear
6:53 PM 62.1 °F - 41.0 °F 46% 29.97 in 10.0 mi ESE 9.2 mph - N/A   Clear
7:53 PM 59.0 °F - 41.0 °F 51% 29.98 in 10.0 mi SE 8.1 mph - N/A   Clear
8:53 PM 57.0 °F - 37.0 °F 47% 29.97 in 10.0 mi ESE 9.2 mph - N/A   Clear
9:53 PM 55.0 °F - 35.1 °F 47% 29.98 in 10.0 mi SE 5.8 mph - N/A   Clear
10:53 PM 52.0 °F - 34.0 °F 50% 29.99 in 10.0 mi East 3.5 mph - N/A   Clear
11:53 PM 52.0 °F - 32.0 °F 47% 29.98 in 10.0 mi ESE 5.8 mph - N/A   Clear